Mountain Home, AR

5:36 PM CDT on April 25, 2017 (GMT -0500)
Baxter County Regional

Weather History for KBPK - March, 2013

Change the Weather History Date:

Tuesday, March 12, 2013

  Actual Average (KFLP) Record (KFLP)
Temperature  
Mean Temperature 42 °F -  
Max Temperature 57 °F 55 °F 84 °F (2005)
Min Temperature 28 °F 35 °F 12 °F (1998)
Degree Days  
Heating Degree Days 24    
Moisture  
Dew Point 24 °F    
Average Humidity 53    
Maximum Humidity 88    
Minimum Humidity 25    
Precipitation  
Precipitation 0.00 in - - ()
Sea Level Pressure  
Sea Level Pressure 30.16 in    
Wind  
Wind Speed 3 mph (NW)    
Max Wind Speed 10 mph    
Max Gust Speed 20 mph    
Visibility 10 miles    
Events      
Averages and records for this station are not official NWS values.
T = Trace of Precipitation, MM = Missing Value Source: NWS Daily Summary

Daily Weather History Graph

Daily Weather History Graph

Search for Another Location

Airport or City:

Trip Planner

Search our weather history database for the weather conditions in past years. The results will help you decide how hot, cold, wet, or windy it might be!

Date:

Astronomy

Mar. 12, 2013 Rise Set
Actual Time 7:24 AM CDT 7:14 PM CDT
Civil Twilight 6:59 AM CDT 7:40 PM CDT
Nautical Twilight 6:29 AM CDT 8:10 PM CDT
Astronomical Twilight 5:59 AM CDT 8:40 PM CDT
Moon 7:34 AM CDT (3/12) 8:26 PM CDT (3/12)
Length of Visible Light 12h 41m
Length of Day
11h 50m
New Moon, 1% of the Moon is Illuminated
Mar 12
New Moon
Mar 19
First Quarter
Mar 27
Full
Apr 2
Last Quarter
Apr 10
New

Hourly Weather History & Observations

Time (CDT) Temp. Windchill Dew Point Humidity Pressure Visibility Wind Dir Wind Speed Gust Speed Precip Events Conditions
1:53 AM 34.0 °F - 24.1 °F 67% 30.06 in 10.0 mi Calm Calm - N/A   Clear
2:53 AM 30.9 °F - 25.0 °F 79% 30.05 in 10.0 mi Calm Calm - N/A   Clear
3:53 AM 30.0 °F - 27.0 °F 88% 30.06 in 9.0 mi Calm Calm - N/A   Clear
4:53 AM 30.0 °F - 26.1 °F 85% 30.05 in 10.0 mi Calm Calm - N/A   Clear
5:53 AM 28.9 °F 25.2 °F 25.0 °F 85% 30.09 in 10.0 mi West 3.5 mph - N/A   Clear
6:53 AM 30.0 °F - 26.1 °F 85% 30.12 in 10.0 mi Calm Calm - N/A   Mostly Cloudy
7:53 AM 32.0 °F - 28.0 °F 85% 30.14 in 8.0 mi Calm Calm - N/A   Clear
8:53 AM 35.1 °F - 28.0 °F 76% 30.17 in 9.0 mi Calm Calm - N/A   Partly Cloudy
9:53 AM 39.0 °F 34.8 °F 27.0 °F 62% 30.19 in 9.0 mi Variable 5.8 mph - N/A   Scattered Clouds
10:53 AM 43.0 °F 40.3 °F 24.1 °F 47% 30.20 in 10.0 mi WNW 4.6 mph - N/A   Clear
11:53 AM 46.9 °F - 21.9 °F 37% 30.20 in 10.0 mi Variable 5.8 mph - N/A   Clear
12:53 PM 50.0 °F - 21.9 °F 33% 30.19 in 10.0 mi Variable 5.8 mph - N/A   Clear
1:53 PM 53.1 °F - 21.0 °F 29% 30.17 in 10.0 mi WNW 8.1 mph - N/A   Clear
2:53 PM 54.0 °F - 19.9 °F 26% 30.16 in 10.0 mi WSW 6.9 mph - N/A   Clear
3:53 PM 55.9 °F - 19.9 °F 25% 30.14 in 10.0 mi WNW 8.1 mph 16.1 mph N/A   Clear
4:53 PM 55.9 °F - 21.0 °F 26% 30.14 in 10.0 mi WNW 9.2 mph 19.6 mph N/A   Clear
5:53 PM 55.0 °F - 21.9 °F 28% 30.14 in 10.0 mi NW 10.4 mph 19.6 mph N/A   Clear
6:53 PM 51.1 °F - 24.1 °F 35% 30.16 in 10.0 mi NNW 9.2 mph 17.3 mph N/A   Clear
7:53 PM 48.0 °F - 25.0 °F 41% 30.19 in 10.0 mi NW 8.1 mph - N/A   Clear
8:53 PM 46.9 °F - 26.1 °F 44% 30.21 in 10.0 mi NW 6.9 mph - N/A   Partly Cloudy
9:53 PM 45.0 °F 41.8 °F 23.0 °F 42% 30.24 in 10.0 mi NW 5.8 mph - N/A   Partly Cloudy
10:53 PM 43.0 °F 40.3 °F 21.0 °F 42% 30.27 in 10.0 mi Variable 4.6 mph - N/A   Clear
11:53 PM 41.0 °F 36.4 °F 19.9 °F 43% 30.29 in 10.0 mi NNW 6.9 mph - N/A   Clear